TimeEST,TemperatureF,Dew PointF,Humidity,Sea Level PressureIn,VisibilityMPH,Wind Direction,Wind SpeedMPH,Gust SpeedMPH,PrecipitationIn,Events,Conditions,WindDirDegrees,DateUTC
12:53 AM,61.0,57.9,90,30.13,10.0,Calm,Calm,-,N/A,,Clear,0,2012-11-26 05:53:00
1:53 AM,60.1,57.9,93,30.12,10.0,Calm,Calm,-,N/A,,Clear,0,2012-11-26 06:53:00
2:53 AM,59.0,57.0,93,30.12,10.0,Calm,Calm,-,N/A,,Clear,0,2012-11-26 07:53:00
3:53 AM,61.0,57.9,90,30.11,10.0,NNW,3.5,-,N/A,,Clear,330,2012-11-26 08:53:00
4:53 AM,62.1,57.9,86,30.12,10.0,NNW,4.6,-,N/A,,Clear,340,2012-11-26 09:53:00
5:53 AM,63.0,57.9,84,30.13,10.0,North,4.6,-,N/A,,Clear,350,2012-11-26 10:53:00
6:53 AM,64.0,57.9,80,30.14,10.0,North,3.5,-,N/A,,Clear,350,2012-11-26 11:53:00
7:53 AM,68.0,59.0,73,30.16,10.0,North,5.8,-,N/A,,Clear,350,2012-11-26 12:53:00
8:53 AM,70.0,60.1,71,30.17,10.0,North,6.9,-,N/A,,Clear,10,2012-11-26 13:53:00
9:53 AM,71.1,60.1,68,30.19,10.0,North,9.2,-,N/A,,Clear,360,2012-11-26 14:53:00
10:53 AM,72.0,62.1,71,30.19,10.0,North,8.1,-,N/A,,Clear,10,2012-11-26 15:53:00
11:53 AM,73.0,62.1,68,30.18,10.0,North,10.4,-,N/A,,Clear,350,2012-11-26 16:53:00
12:53 PM,75.0,63.0,66,30.15,10.0,NNE,8.1,-,N/A,,Clear,20,2012-11-26 17:53:00
1:53 PM,75.9,63.0,64,30.12,10.0,NE,6.9,-,N/A,,Clear,40,2012-11-26 18:53:00
2:53 PM,75.9,64.0,67,30.11,10.0,NNE,6.9,-,N/A,,Clear,20,2012-11-26 19:53:00
3:53 PM,75.0,64.0,69,30.11,10.0,NNE,6.9,-,N/A,,Clear,30,2012-11-26 20:53:00
4:53 PM,73.9,64.9,73,30.12,10.0,NE,6.9,-,N/A,,Clear,40,2012-11-26 21:53:00
5:53 PM,71.1,64.9,81,30.12,10.0,NE,4.6,-,N/A,,Clear,40,2012-11-26 22:53:00
6:53 PM,71.1,66.0,84,30.13,10.0,NE,5.8,-,N/A,,Clear,40,2012-11-26 23:53:00
7:53 PM,71.1,66.0,84,30.14,10.0,NNE,3.5,-,N/A,,Partly Cloudy,30,2012-11-27 00:53:00
8:53 PM,72.0,66.0,81,30.16,10.0,East,4.6,-,N/A,,Mostly Cloudy,80,2012-11-27 01:53:00
9:53 PM,75.9,66.0,71,30.17,10.0,ESE,13.8,-,N/A,,Mostly Cloudy,120,2012-11-27 02:53:00
10:53 PM,75.9,64.9,69,30.16,10.0,SE,12.7,-,N/A,,Overcast,140,2012-11-27 03:53:00
11:53 PM,75.9,64.0,67,30.15,10.0,SE,15.0,-,N/A,,Mostly Cloudy,130,2012-11-27 04:53:00